CSC8633 ZUCK-ZULS

Flight info

Callsign CSC8633
Flight time 2h 22m
Altitude 36100
Route URGEG6Y URGEG W80 WFX B213 LXA
Aircraft A319/M-SDE3FGHIRWY/LB1

Departure

Time 2026-04-24 10:48
Airport Chongqing Jiangbei International Airport (ZUCK)

Arrival

Time 2026-04-24 13:11
Airport Lhasa Gonggar International Airport (ZULS)
Time Latitude Longitude Altitude Speed Heading
2026-04-24 10:39 29.73137 106.65701 1346 ft 0 kts 107°
2026-04-24 10:40 29.73139 106.65691 1346 ft 2 kts 107°
2026-04-24 10:40 29.73144 106.65674 1348 ft 2 kts 107°
2026-04-24 10:40 29.73149 106.65656 1348 ft 2 kts 107°
2026-04-24 10:40 29.73152 106.65638 1347 ft 2 kts 82°
2026-04-24 10:41 29.73148 106.65620 1348 ft 2 kts 44°
2026-04-24 10:41 29.73142 106.65613 1352 ft 0 kts 17°
2026-04-24 10:45 29.73175 106.65625 1348 ft 15 kts 17°
2026-04-24 10:45 29.73289 106.65599 1352 ft 18 kts 325°
2026-04-24 10:45 29.73386 106.65508 1352 ft 18 kts 319°
2026-04-24 10:45 29.73481 106.65414 1353 ft 18 kts 317°
2026-04-24 10:46 29.73526 106.65286 1354 ft 18 kts 284°
2026-04-24 10:46 29.73557 106.65151 1354 ft 15 kts 261°
2026-04-24 10:46 29.73475 106.65121 1352 ft 10 kts 217°
2026-04-24 10:46 29.73413 106.65080 1354 ft 11 kts 195°
2026-04-24 10:47 29.73336 106.65053 1355 ft 12 kts 197°
2026-04-24 10:47 29.73270 106.65031 1355 ft 7 kts 197°
2026-04-24 10:47 29.73209 106.65010 1355 ft 17 kts 197°
2026-04-24 10:47 29.72918 106.64909 1360 ft 70 kts 197°
2026-04-24 10:48 29.72273 106.64686 1356 ft 123 kts 197°
2026-04-24 10:48 29.71297 106.64348 1359 ft 170 kts 197°
2026-04-24 10:48 29.70156 106.63949 1853 ft 171 kts 197°
2026-04-24 10:48 29.69008 106.63555 2441 ft 173 kts 196°
2026-04-24 10:49 29.67867 106.63167 3016 ft 174 kts 196°
2026-04-24 10:49 29.66646 106.62753 3305 ft 193 kts 195°
2026-04-24 10:49 29.65284 106.62289 3468 ft 216 kts 196°
2026-04-24 10:49 29.63761 106.61766 3683 ft 241 kts 196°
2026-04-24 10:50 29.62078 106.61182 4096 ft 262 kts 196°
2026-04-24 10:50 29.60299 106.60565 4848 ft 270 kts 196°
2026-04-24 10:50 29.58618 106.59575 5621 ft 277 kts 222°
2026-04-24 10:50 29.57635 106.57672 6424 ft 284 kts 256°
2026-04-24 10:51 29.57660 106.55401 7196 ft 289 kts 283°
2026-04-24 10:51 29.58293 106.53205 7990 ft 291 kts 293°
2026-04-24 10:51 29.59112 106.51068 8811 ft 293 kts 295°
2026-04-24 10:51 29.59938 106.48922 9602 ft 295 kts 294°
2026-04-24 10:52 29.60709 106.46724 10339 ft 297 kts 292°
2026-04-24 10:52 29.61418 106.44467 10877 ft 308 kts 290°
2026-04-24 10:52 29.62109 106.42067 11026 ft 330 kts 289°
2026-04-24 10:52 29.62811 106.39468 11259 ft 348 kts 288°
2026-04-24 10:53 29.63509 106.36774 11814 ft 353 kts 288°
2026-04-24 10:53 29.64202 106.34063 12456 ft 354 kts 288°
2026-04-24 10:53 29.64911 106.31344 13132 ft 355 kts 291°
2026-04-24 10:53 29.66084 106.28868 13777 ft 354 kts 310°
2026-04-24 10:54 29.67907 106.26992 14386 ft 353 kts 328°
2026-04-24 10:54 29.70145 106.25914 14983 ft 356 kts 346°
2026-04-24 10:54 29.72657 106.25726 15592 ft 362 kts
2026-04-24 10:54 29.75125 106.26391 16185 ft 367 kts 13°
2026-04-24 10:55 29.77545 106.27211 16781 ft 368 kts 13°
2026-04-24 10:55 29.80011 106.28065 17380 ft 370 kts 12°
2026-04-24 10:55 29.82487 106.28923 17953 ft 372 kts 12°
2026-04-24 10:55 29.84972 106.29777 18512 ft 373 kts 12°
2026-04-24 10:56 29.87473 106.30635 19027 ft 375 kts 11°
2026-04-24 10:56 29.89980 106.31497 19492 ft 378 kts 11°
2026-04-24 10:56 29.92490 106.32358 19979 ft 381 kts 11°
2026-04-24 10:56 29.95040 106.33235 20489 ft 384 kts 11°
2026-04-24 10:57 29.97601 106.34119 20978 ft 385 kts 11°
2026-04-24 10:57 30.00173 106.35007 21454 ft 387 kts 11°
2026-04-24 10:57 30.02764 106.35902 21904 ft 390 kts 11°
2026-04-24 10:57 30.05371 106.36799 22368 ft 392 kts 10°
2026-04-24 10:58 30.07993 106.37699 22804 ft 394 kts
2026-04-24 10:58 30.10634 106.38605 23224 ft 396 kts
2026-04-24 10:58 30.13291 106.39522 23638 ft 398 kts
2026-04-24 10:58 30.15954 106.40442 23982 ft 401 kts
2026-04-24 10:59 30.18630 106.41370 24324 ft 403 kts
2026-04-24 10:59 30.21320 106.42307 24659 ft 405 kts
2026-04-24 10:59 30.24022 106.43248 24989 ft 406 kts
2026-04-24 10:59 30.26701 106.44179 25312 ft 408 kts
2026-04-24 11:00 30.29427 106.45125 25640 ft 410 kts
2026-04-24 11:00 30.32173 106.46078 25970 ft 412 kts
2026-04-24 11:00 30.34944 106.46898 26291 ft 408 kts
2026-04-24 11:00 30.37752 106.47083 26603 ft 401 kts 351°
2026-04-24 11:01 30.40483 106.46597 26915 ft 395 kts 340°
2026-04-24 11:01 30.43051 106.45495 27224 ft 392 kts 330°
2026-04-24 11:01 30.45358 106.43836 27532 ft 390 kts 320°
2026-04-24 11:01 30.47391 106.41750 27857 ft 391 kts 316°
2026-04-24 11:02 30.49395 106.39612 28173 ft 392 kts 316°
2026-04-24 11:02 30.51411 106.37465 28480 ft 393 kts 316°
2026-04-24 11:02 30.53428 106.35317 28783 ft 395 kts 316°
2026-04-24 11:02 30.55444 106.33143 29045 ft 396 kts 314°
2026-04-24 11:03 30.57165 106.30644 29301 ft 399 kts 303°
2026-04-24 11:03 30.58398 106.27747 29567 ft 403 kts 292°
2026-04-24 11:03 30.59076 106.24569 29829 ft 410 kts 281°
2026-04-24 11:03 30.59150 106.21240 30133 ft 418 kts 270°
2026-04-24 11:04 30.58820 106.17884 30458 ft 418 kts 269°
2026-04-24 11:04 30.58476 106.14541 30796 ft 416 kts 269°
2026-04-24 11:04 30.58130 106.11206 31134 ft 415 kts 269°
2026-04-24 11:04 30.57787 106.07883 31481 ft 414 kts 269°
2026-04-24 11:05 30.57449 106.04575 31827 ft 412 kts 269°
2026-04-24 11:05 30.57118 106.01319 32180 ft 411 kts 269°
2026-04-24 11:05 30.56779 105.97989 32515 ft 410 kts 269°
2026-04-24 11:05 30.56446 105.94757 32870 ft 408 kts 269°
2026-04-24 11:06 30.56107 105.91496 33220 ft 406 kts 270°
2026-04-24 11:06 30.55768 105.88249 33592 ft 405 kts 270°
2026-04-24 11:06 30.55426 105.85013 33962 ft 403 kts 270°
2026-04-24 11:06 30.55195 105.82831 34181 ft 402 kts 270°
2026-04-24 11:07 30.54408 105.75363 34826 ft 400 kts 270°
2026-04-24 11:07 30.54071 105.72160 35104 ft 400 kts 270°
2026-04-24 11:07 30.53733 105.68959 35376 ft 399 kts 270°
2026-04-24 11:08 30.53509 105.66843 35551 ft 399 kts 270°
2026-04-24 11:08 30.53169 105.63655 35777 ft 399 kts 270°
2026-04-24 11:08 30.52708 105.59382 36038 ft 399 kts 270°
2026-04-24 11:08 30.52481 105.57266 36080 ft 399 kts 270°
2026-04-24 11:09 30.51801 105.50897 36091 ft 398 kts 270°
2026-04-24 11:09 30.51126 105.44527 36091 ft 397 kts 270°
2026-04-24 11:10 30.50443 105.38163 36085 ft 397 kts 270°
2026-04-24 11:10 30.49836 105.31810 36091 ft 393 kts 275°
2026-04-24 11:11 30.50348 105.25591 36069 ft 386 kts 283°
2026-04-24 11:11 30.51064 105.19418 36082 ft 386 kts 283°
2026-04-24 11:12 30.51782 105.13246 36085 ft 386 kts 283°
2026-04-24 11:12 30.52490 105.07069 36087 ft 386 kts 283°
2026-04-24 11:13 30.53186 105.00885 36082 ft 386 kts 283°
2026-04-24 11:13 30.53883 104.94703 36084 ft 386 kts 283°
2026-04-24 11:14 30.54585 104.88558 36056 ft 386 kts 283°
2026-04-24 11:14 30.55285 104.82375 36068 ft 387 kts 283°
2026-04-24 11:15 30.55974 104.76187 36078 ft 387 kts 282°
2026-04-24 11:15 30.56724 104.70017 36081 ft 385 kts 285°
2026-04-24 11:16 30.57819 104.63953 36085 ft 384 kts 288°
2026-04-24 11:16 30.59023 104.57921 36087 ft 384 kts 287°
2026-04-24 11:17 30.60180 104.51870 36087 ft 384 kts 287°
2026-04-24 11:17 30.60463 104.45650 36087 ft 395 kts 272°
2026-04-24 11:18 30.60037 104.39285 36090 ft 396 kts 272°
2026-04-24 11:18 30.59628 104.32916 36088 ft 395 kts 272°
2026-04-24 11:19 30.59225 104.26550 36087 ft 396 kts 272°
2026-04-24 11:19 30.58830 104.20183 36053 ft 395 kts 273°
2026-04-24 11:20 30.58468 104.13812 36063 ft 395 kts 273°
2026-04-24 11:20 30.58109 104.07441 36071 ft 396 kts 273°
2026-04-24 11:21 30.57734 104.01067 36092 ft 396 kts 272°
2026-04-24 11:21 30.57589 103.94721 36095 ft 389 kts 282°
2026-04-24 11:22 30.58902 103.88735 36100 ft 382 kts 292°
2026-04-24 11:22 30.60545 103.82869 36080 ft 382 kts 291°
2026-04-24 11:23 30.62181 103.77005 36084 ft 382 kts 291°
2026-04-24 11:23 30.63804 103.71172 36090 ft 382 kts 291°
2026-04-24 11:24 30.65405 103.65237 36100 ft 383 kts 290°
2026-04-24 11:24 30.66832 103.59310 36115 ft 384 kts 289°
2026-04-24 11:25 30.68241 103.53330 36114 ft 384 kts 289°
2026-04-24 11:25 30.69666 103.47359 36147 ft 383 kts 289°
2026-04-24 11:26 30.71105 103.41402 36167 ft 383 kts 290°
2026-04-24 11:26 30.72546 103.35442 36171 ft 382 kts 290°
2026-04-24 11:27 30.73977 103.29499 36208 ft 382 kts 289°
2026-04-24 11:27 30.75393 103.23606 36198 ft 380 kts 289°
2026-04-24 11:28 30.76812 103.17681 36231 ft 381 kts 289°
2026-04-24 11:28 30.78225 103.11741 36226 ft 381 kts 289°
2026-04-24 11:29 30.79634 103.05798 36254 ft 381 kts 290°
2026-04-24 11:29 30.80577 102.99716 36250 ft 388 kts 276°
2026-04-24 11:30 30.80467 102.93418 36244 ft 389 kts 275°
2026-04-24 11:30 30.80352 102.87112 36244 ft 390 kts 275°
2026-04-24 11:31 30.80241 102.80820 36241 ft 389 kts 275°
2026-04-24 11:31 30.80131 102.74569 36217 ft 389 kts 275°
2026-04-24 11:32 30.80020 102.68281 36219 ft 389 kts 275°
2026-04-24 11:32 30.79898 102.61988 36195 ft 389 kts 275°
2026-04-24 11:33 30.79768 102.55703 36197 ft 389 kts 275°
2026-04-24 11:33 30.79636 102.49421 36229 ft 388 kts 275°
2026-04-24 11:34 30.79503 102.43145 36187 ft 388 kts 275°
2026-04-24 11:34 30.79372 102.36884 36169 ft 386 kts 274°
2026-04-24 11:35 30.79233 102.30677 36128 ft 388 kts 274°
2026-04-24 11:35 30.79097 102.24410 36125 ft 388 kts 275°
2026-04-24 11:36 30.78959 102.18110 36105 ft 391 kts 274°
2026-04-24 11:36 30.78808 102.11799 36096 ft 389 kts 274°
2026-04-24 11:37 30.78652 102.05509 36081 ft 387 kts 274°
2026-04-24 11:37 30.78502 101.99241 36044 ft 390 kts 272°
2026-04-24 11:38 30.78341 101.92936 36050 ft 389 kts 273°
2026-04-24 11:38 30.78574 101.86729 36056 ft 385 kts 280°
2026-04-24 11:39 30.79102 101.80531 36061 ft 385 kts 280°
2026-04-24 11:39 30.79621 101.74324 36061 ft 385 kts 280°
2026-04-24 11:40 30.80132 101.68111 36063 ft 386 kts 278°
2026-04-24 11:40 30.80644 101.61883 36041 ft 387 kts 279°
2026-04-24 11:41 30.81159 101.55619 36055 ft 391 kts 279°
2026-04-24 11:41 30.81671 101.49309 36058 ft 392 kts 279°
2026-04-24 11:42 30.82180 101.42973 36061 ft 394 kts 279°
2026-04-24 11:42 30.82687 101.36644 36066 ft 392 kts 279°
2026-04-24 11:43 30.83189 101.30315 36064 ft 392 kts 279°
2026-04-24 11:43 30.83689 101.24013 36071 ft 394 kts 278°
2026-04-24 11:44 30.84192 101.17674 36069 ft 394 kts 278°
2026-04-24 11:44 30.84690 101.11322 36069 ft 394 kts 278°
2026-04-24 11:45 30.85185 101.04959 36085 ft 395 kts 278°
2026-04-24 11:45 30.85677 100.98597 36075 ft 394 kts 278°
2026-04-24 11:46 30.86159 100.92248 36065 ft 394 kts 278°
2026-04-24 11:46 30.86643 100.85896 36082 ft 395 kts 278°
2026-04-24 11:47 30.87126 100.79573 36085 ft 394 kts 278°
2026-04-24 11:47 30.87608 100.73225 36082 ft 394 kts 278°
2026-04-24 11:48 30.88081 100.66869 36093 ft 393 kts 278°
2026-04-24 11:48 30.88551 100.60521 36096 ft 393 kts 278°
2026-04-24 11:49 30.89022 100.54152 36069 ft 394 kts 278°
2026-04-24 11:49 30.89490 100.47785 36068 ft 395 kts 277°
2026-04-24 11:50 30.89951 100.41440 36071 ft 396 kts 278°
2026-04-24 11:50 30.90410 100.35033 36078 ft 398 kts 277°
2026-04-24 11:51 30.90864 100.28620 36086 ft 397 kts 278°
2026-04-24 11:51 30.91323 100.22212 36089 ft 396 kts 278°
2026-04-24 11:52 30.91776 100.15815 36057 ft 397 kts 277°
2026-04-24 11:52 30.92230 100.09395 36076 ft 398 kts 277°
2026-04-24 11:53 30.92677 100.02969 36084 ft 398 kts 277°
2026-04-24 11:53 30.93137 99.96545 36103 ft 398 kts 278°
2026-04-24 11:54 30.93652 99.90157 36104 ft 397 kts 278°
2026-04-24 11:54 30.94174 99.83756 36122 ft 397 kts 278°
2026-04-24 11:55 30.94687 99.77332 36107 ft 398 kts 278°
2026-04-24 11:55 30.95195 99.70899 36098 ft 399 kts 277°
2026-04-24 11:56 30.95695 99.64461 36092 ft 400 kts 277°
2026-04-24 11:56 30.96188 99.58045 36092 ft 400 kts 277°
2026-04-24 11:57 30.96673 99.51586 36095 ft 400 kts 277°
2026-04-24 11:57 30.97080 99.46214 36069 ft 400 kts 277°
2026-04-24 11:58 30.97662 99.38647 36064 ft 402 kts 277°
2026-04-24 11:58 30.98154 99.32143 36069 ft 403 kts 277°
2026-04-24 11:59 30.98634 99.25626 36060 ft 404 kts 277°
2026-04-24 11:59 30.99035 99.20216 36060 ft 403 kts 277°
2026-04-24 12:00 30.99518 99.13689 36068 ft 404 kts 277°
2026-04-24 12:00 30.99992 99.07169 36030 ft 404 kts 277°
2026-04-24 12:01 31.00463 99.00621 36037 ft 406 kts 277°
2026-04-24 12:01 31.00941 98.94049 36022 ft 407 kts 277°
2026-04-24 12:02 31.01412 98.87461 36037 ft 409 kts 277°
2026-04-24 12:02 31.01883 98.80889 36041 ft 409 kts 277°
2026-04-24 12:03 31.02350 98.74293 36024 ft 407 kts 277°
2026-04-24 12:03 31.02814 98.67695 36024 ft 408 kts 276°
2026-04-24 12:04 31.03308 98.61082 36031 ft 409 kts 277°
2026-04-24 12:04 31.03872 98.54477 36033 ft 409 kts 277°
2026-04-24 12:05 31.04436 98.47913 36041 ft 409 kts 277°
2026-04-24 12:05 31.04988 98.41296 36039 ft 409 kts 277°
2026-04-24 12:06 31.05525 98.34670 36044 ft 409 kts 277°
2026-04-24 12:06 31.06063 98.28060 36035 ft 410 kts 277°
2026-04-24 12:07 31.06600 98.21423 36037 ft 412 kts 277°
2026-04-24 12:07 31.07133 98.14802 36051 ft 412 kts 277°
2026-04-24 12:08 31.07660 98.08131 36052 ft 413 kts 277°
2026-04-24 12:08 31.08197 98.01445 36071 ft 414 kts 277°
2026-04-24 12:09 31.08735 97.94761 36069 ft 414 kts 277°
2026-04-24 12:09 31.09274 97.88076 36083 ft 414 kts 277°
2026-04-24 12:10 31.09809 97.81387 36089 ft 413 kts 277°
2026-04-24 12:11 31.10590 97.71409 36072 ft 413 kts 277°
2026-04-24 12:11 31.11109 97.64733 36076 ft 413 kts 277°
2026-04-24 12:12 31.11622 97.58053 36033 ft 413 kts 277°
2026-04-24 12:12 31.12134 97.51372 36027 ft 414 kts 277°
2026-04-24 12:13 31.12649 97.44677 36027 ft 415 kts 276°
2026-04-24 12:13 31.13160 97.37965 36032 ft 415 kts 276°
2026-04-24 12:14 31.13664 97.31236 36028 ft 415 kts 276°
2026-04-24 12:14 31.14160 97.24508 36027 ft 416 kts 276°
2026-04-24 12:15 31.14441 97.17757 36027 ft 418 kts 267°
2026-04-24 12:15 31.13276 97.11125 36026 ft 421 kts 258°
2026-04-24 12:16 31.11851 97.04503 36028 ft 421 kts 259°
2026-04-24 12:16 31.10434 96.97869 36057 ft 421 kts 259°
2026-04-24 12:17 31.09012 96.91234 36061 ft 422 kts 258°
2026-04-24 12:17 31.07585 96.84596 36064 ft 422 kts 258°
2026-04-24 12:18 31.06147 96.77958 36066 ft 422 kts 258°
2026-04-24 12:18 31.04700 96.71303 36071 ft 424 kts 258°
2026-04-24 12:19 31.03252 96.64645 36075 ft 423 kts 258°
2026-04-24 12:19 31.01810 96.58021 36098 ft 424 kts 258°
2026-04-24 12:20 31.00352 96.51350 36086 ft 424 kts 258°
2026-04-24 12:20 30.98895 96.44693 36081 ft 424 kts 258°
2026-04-24 12:21 30.97450 96.38046 36069 ft 423 kts 259°
2026-04-24 12:21 30.96053 96.31389 36073 ft 423 kts 259°
2026-04-24 12:22 30.94659 96.24730 36080 ft 423 kts 259°
2026-04-24 12:22 30.93248 96.18079 36062 ft 423 kts 258°
2026-04-24 12:23 30.91827 96.11427 36060 ft 424 kts 258°
2026-04-24 12:23 30.90401 96.04766 36052 ft 423 kts 258°
2026-04-24 12:24 30.88986 95.98159 36067 ft 422 kts 258°
2026-04-24 12:24 30.87563 95.91532 36062 ft 422 kts 258°
2026-04-24 12:25 30.86138 95.84908 36060 ft 421 kts 258°
2026-04-24 12:25 30.84710 95.78289 36062 ft 421 kts 258°
2026-04-24 12:26 30.83278 95.71666 36066 ft 422 kts 258°
2026-04-24 12:26 30.81893 95.64995 36059 ft 424 kts 259°
2026-04-24 12:27 30.80540 95.58361 36070 ft 425 kts 259°
2026-04-24 12:27 30.79163 95.51669 36074 ft 425 kts 259°
2026-04-24 12:28 30.77777 95.44976 36094 ft 426 kts 259°
2026-04-24 12:28 30.76383 95.38278 36096 ft 426 kts 259°
2026-04-24 12:29 30.74989 95.31580 36104 ft 426 kts 258°
2026-04-24 12:29 30.73587 95.24888 36165 ft 425 kts 258°
2026-04-24 12:30 30.72186 95.18210 36160 ft 425 kts 259°
2026-04-24 12:30 30.70777 95.11549 36171 ft 424 kts 258°
2026-04-24 12:31 30.69383 95.04934 36170 ft 423 kts 258°
2026-04-24 12:31 30.67974 94.98250 36172 ft 423 kts 258°
2026-04-24 12:32 30.66577 94.91665 36161 ft 423 kts 258°
2026-04-24 12:32 30.65162 94.85017 36157 ft 423 kts 258°
2026-04-24 12:33 30.63740 94.78379 36173 ft 423 kts 258°
2026-04-24 12:33 30.62317 94.71736 36169 ft 424 kts 258°
2026-04-24 12:34 30.60890 94.65079 36166 ft 425 kts 257°
2026-04-24 12:34 30.59454 94.58420 36169 ft 425 kts 257°
2026-04-24 12:35 30.58030 94.51799 36173 ft 425 kts 257°
2026-04-24 12:35 30.56595 94.45147 36168 ft 425 kts 257°
2026-04-24 12:36 30.55150 94.38493 36169 ft 425 kts 257°
2026-04-24 12:36 30.53704 94.31835 36174 ft 426 kts 257°
2026-04-24 12:37 30.52250 94.25168 36174 ft 425 kts 257°
2026-04-24 12:37 30.50801 94.18510 36179 ft 426 kts 257°
2026-04-24 12:38 30.49411 94.11868 36173 ft 426 kts 257°
2026-04-24 12:38 30.48037 94.05168 36181 ft 426 kts 257°
2026-04-24 12:39 30.45256 93.91781 36183 ft 427 kts 257°
2026-04-24 12:40 30.43855 93.85116 36188 ft 428 kts 257°
2026-04-24 12:40 30.42453 93.78426 36182 ft 427 kts 257°
2026-04-24 12:41 30.41044 93.71727 36173 ft 428 kts 257°
2026-04-24 12:41 30.39628 93.65028 36183 ft 428 kts 257°
2026-04-24 12:42 30.37937 93.58420 36177 ft 429 kts 247°
2026-04-24 12:42 30.35410 93.52203 36184 ft 430 kts 246°
2026-04-24 12:43 30.32868 93.45938 36158 ft 430 kts 245°
2026-04-24 12:43 30.30321 93.39663 36162 ft 431 kts 245°
2026-04-24 12:44 30.27765 93.33379 36139 ft 431 kts 245°
2026-04-24 12:44 30.25212 93.27102 36142 ft 431 kts 245°
2026-04-24 12:45 30.22646 93.20826 36140 ft 432 kts 245°
2026-04-24 12:45 30.20075 93.14554 36123 ft 432 kts 245°
2026-04-24 12:46 30.17505 93.08278 36121 ft 432 kts 245°
2026-04-24 12:46 30.14950 93.02042 36116 ft 432 kts 245°
2026-04-24 12:47 30.12365 92.95775 36125 ft 432 kts 245°
2026-04-24 12:47 30.10217 92.90566 36127 ft 432 kts 245°
2026-04-24 12:48 30.07643 92.84286 36098 ft 432 kts 245°
2026-04-24 12:48 30.05056 92.78016 36091 ft 433 kts 245°
2026-04-24 12:49 30.02452 92.71727 36110 ft 434 kts 245°
2026-04-24 12:49 29.99844 92.65429 36116 ft 435 kts 245°
2026-04-24 12:50 29.97228 92.59117 36097 ft 437 kts 245°
2026-04-24 12:50 29.94606 92.52821 36099 ft 438 kts 245°
2026-04-24 12:51 29.91970 92.46488 36105 ft 438 kts 245°
2026-04-24 12:51 29.89334 92.40152 36114 ft 438 kts 245°
2026-04-24 12:52 29.86686 92.33821 36122 ft 438 kts 245°
2026-04-24 12:52 29.84045 92.27500 36105 ft 438 kts 245°
2026-04-24 12:53 29.81396 92.21171 36089 ft 438 kts 245°
2026-04-24 12:53 29.78750 92.14869 36101 ft 439 kts 245°
2026-04-24 12:54 29.76083 92.08530 36060 ft 441 kts 245°
2026-04-24 12:54 29.73405 92.02173 36065 ft 442 kts 245°
2026-04-24 12:55 29.70716 91.95816 35998 ft 442 kts 244°
2026-04-24 12:55 29.69365 91.92621 35175 ft 449 kts 245°
2026-04-24 12:55 29.67985 91.89352 34246 ft 458 kts 245°
2026-04-24 12:55 29.66583 91.86032 33318 ft 464 kts 245°
2026-04-24 12:56 29.65166 91.82681 32389 ft 467 kts 244°
2026-04-24 12:56 29.63743 91.79323 31506 ft 469 kts 244°
2026-04-24 12:56 29.62309 91.75944 30623 ft 471 kts 244°
2026-04-24 12:56 29.60904 91.72635 29658 ft 464 kts 244°
2026-04-24 12:57 29.59488 91.69304 28833 ft 460 kts 244°
2026-04-24 12:57 29.58092 91.66029 28241 ft 453 kts 244°
2026-04-24 12:57 29.56712 91.62794 27641 ft 448 kts 244°
2026-04-24 12:57 29.55351 91.59604 27046 ft 442 kts 244°
2026-04-24 12:58 29.54004 91.56450 26469 ft 437 kts 244°
2026-04-24 12:58 29.52671 91.53325 25885 ft 433 kts 244°
2026-04-24 12:58 29.51356 91.50238 25303 ft 429 kts 244°
2026-04-24 12:58 29.50051 91.47180 24747 ft 425 kts 244°
2026-04-24 12:59 29.48766 91.44180 24198 ft 421 kts 244°
2026-04-24 12:59 29.47479 91.41186 23665 ft 416 kts 244°
2026-04-24 12:59 29.46207 91.38227 23086 ft 412 kts 244°
2026-04-24 12:59 29.44953 91.35306 22575 ft 405 kts 244°
2026-04-24 13:00 29.43718 91.32426 22086 ft 399 kts 244°
2026-04-24 13:00 29.42500 91.29584 21620 ft 394 kts 244°
2026-04-24 13:00 29.41295 91.26773 21155 ft 391 kts 244°
2026-04-24 13:00 29.40099 91.23995 20697 ft 387 kts 243°
2026-04-24 13:01 29.38913 91.21240 20227 ft 384 kts 244°
2026-04-24 13:01 29.37735 91.18502 19757 ft 381 kts 243°
2026-04-24 13:01 29.36566 91.15787 19283 ft 378 kts 243°
2026-04-24 13:01 29.35402 91.13093 18811 ft 376 kts 243°
2026-04-24 13:02 29.34248 91.10423 18332 ft 373 kts 243°
2026-04-24 13:02 29.33099 91.07769 17799 ft 370 kts 243°
2026-04-24 13:02 29.31957 91.05130 17286 ft 367 kts 243°
2026-04-24 13:02 29.31082 91.02427 17067 ft 355 kts 257°
2026-04-24 13:03 29.30892 90.99667 16945 ft 343 kts 273°
2026-04-24 13:03 29.31352 90.97042 16793 ft 330 kts 289°
2026-04-24 13:03 29.32339 90.94759 16648 ft 312 kts 300°
2026-04-24 13:03 29.33418 90.92717 16513 ft 294 kts 299°
2026-04-24 13:04 29.34431 90.90796 16400 ft 269 kts 299°
2026-04-24 13:04 29.35350 90.89049 16312 ft 241 kts 299°
2026-04-24 13:04 29.36171 90.87489 16182 ft 217 kts 299°
2026-04-24 13:04 29.36893 90.86057 16096 ft 194 kts 292°
2026-04-24 13:05 29.37268 90.84680 15998 ft 173 kts 278°
2026-04-24 13:05 29.37339 90.83327 15780 ft 167 kts 265°
2026-04-24 13:05 29.37211 90.82011 15577 ft 166 kts 261°
2026-04-24 13:05 29.37037 90.80706 15367 ft 165 kts 259°
2026-04-24 13:06 29.36815 90.79418 15160 ft 164 kts 257°
2026-04-24 13:06 29.36539 90.78149 14955 ft 164 kts 254°
2026-04-24 13:06 29.36058 90.76968 14752 ft 164 kts 236°
2026-04-24 13:06 29.35274 90.76023 14678 ft 165 kts 217°
2026-04-24 13:07 29.34270 90.75417 14337 ft 163 kts 199°
2026-04-24 13:07 29.33147 90.75205 14151 ft 165 kts 180°
2026-04-24 13:07 29.32017 90.75415 13962 ft 166 kts 163°
2026-04-24 13:07 29.31001 90.76031 13754 ft 167 kts 144°
2026-04-24 13:08 29.30209 90.76992 13593 ft 173 kts 126°
2026-04-24 13:08 29.29718 90.78264 13420 ft 177 kts 104°
2026-04-24 13:08 29.29626 90.79671 13217 ft 178 kts 87°
2026-04-24 13:09 29.29633 90.82491 12724 ft 177 kts 90°
2026-04-24 13:09 29.29675 90.83899 12473 ft 176 kts 85°
2026-04-24 13:09 29.29710 90.85300 12186 ft 176 kts 90°
2026-04-24 13:09 29.29738 90.86694 11942 ft 175 kts 87°
2026-04-24 13:10 29.29756 90.88084 11685 ft 175 kts 89°
2026-04-24 13:10 29.29781 90.89464 11475 ft 172 kts 89°
2026-04-24 13:10 29.29801 90.90723 11455 ft 138 kts 89°
2026-04-24 13:10 29.29814 90.91623 11457 ft 88 kts 89°
2026-04-24 13:11 29.29822 90.92148 11441 ft 53 kts 89°
2026-04-24 13:11 29.29828 90.92508 11439 ft 43 kts 89°
2026-04-24 13:11 29.29829 90.92812 11438 ft 23 kts 105°
2026-04-24 13:11 29.29726 90.92913 11439 ft 9 kts 148°
2026-04-24 13:12 29.29685 90.92928 11431 ft 6 kts 184°
2026-04-24 13:12 29.29665 90.92867 11434 ft 12 kts 275°
2026-04-24 13:12 29.29666 90.92759 11439 ft 15 kts 268°
2026-04-24 13:12 29.29663 90.92631 11435 ft 17 kts 269°
2026-04-24 13:13 29.29662 90.92487 11441 ft 19 kts 269°
2026-04-24 13:13 29.29659 90.92329 11441 ft 21 kts 269°
2026-04-24 13:13 29.29656 90.92156 11442 ft 23 kts 269°
2026-04-24 13:13 29.29654 90.91969 11443 ft 24 kts 269°
2026-04-24 13:14 29.29651 90.91766 11437 ft 27 kts 269°
2026-04-24 13:14 29.29647 90.91545 11457 ft 29 kts 269°
2026-04-24 13:14 29.29644 90.91358 11457 ft 24 kts 269°
2026-04-24 13:14 29.29641 90.91158 11457 ft 27 kts 269°
2026-04-24 13:15 29.29638 90.90932 11460 ft 30 kts 269°
2026-04-24 13:15 29.29634 90.90701 11460 ft 29 kts 269°
2026-04-24 13:15 29.29631 90.90484 11461 ft 23 kts 269°
2026-04-24 13:15 29.29627 90.90294 11462 ft 25 kts 269°
2026-04-24 13:16 29.29626 90.90129 11463 ft 19 kts 269°
2026-04-24 13:16 29.29623 90.90031 11464 ft 12 kts 257°
2026-04-24 13:16 29.29546 90.90002 11460 ft 13 kts 202°
2026-04-24 13:16 29.29525 90.89911 11464 ft 9 kts 269°
2026-04-24 13:17 29.29495 90.89854 11464 ft 10 kts 181°
2026-04-24 13:17 29.29431 90.89856 11459 ft 4 kts 180°
2026-04-24 13:17 29.29429 90.89856 11459 ft 0 kts 180°